Louisville Bowman, KY

1:56 PM EDT on October 17, 2017 (GMT -0400)
Bowman

Weather History for KLOU - March, 2014

Change the Weather History Date:

Tuesday, March 18, 2014

  Actual Average Record
Temperature  
Mean Temperature 43 °F 48 °F  
Max Temperature 52 °F 57 °F 82 °F (1982)
Min Temperature 33 °F 38 °F 19 °F (1959)
Degree Days  
Heating Degree Days 22 17  
Month to date heating degree days 428 363  
Since 1 July heating degree days 4237 3724  
Cooling Degree Days 0 0  
Month to date cooling degree days 0 0  
Year to date cooling degree days 0 0  
Moisture  
Dew Point 36 °F    
Average Humidity 72    
Maximum Humidity 80    
Minimum Humidity 63    
Precipitation  
Precipitation 0.00 in 0.14 in 2.04 in (1992)
Month to date precipitation 1.02 2.26  
Year to date precipitation 6.79 8.82  
Sea Level Pressure  
Sea Level Pressure 29.90 in    
Wind  
Wind Speed 5 mph (SE)    
Max Wind Speed 13 mph    
Max Gust Speed 18 mph    
Visibility 10 miles    
Events      
T = Trace of Precipitation, MM = Missing Value Source: NWS Daily Summary

Daily Weather History Graph

Daily Weather History Graph

Search for Another Location

Airport or City:

Trip Planner

Search our weather history database for the weather conditions in past years. The results will help you decide how hot, cold, wet, or windy it might be!

Date:

Astronomy

Mar. 18, 2014 Rise Set
Actual Time 7:49 AM EDT 7:52 PM EDT
Civil Twilight 7:22 AM EDT 8:19 PM EDT
Nautical Twilight 6:52 AM EDT 8:49 PM EDT
Astronomical Twilight 6:21 AM EDT 9:20 PM EDT
Moon 10:06 PM EDT (3/18) 8:40 AM EDT (3/18)
Length of Visible Light 12h 56m
Length of Day
12h 03m
Waning Gibbous, 96% of the Moon is Illuminated
Mar 18
Waning Gibbous
Mar 23
Last Quarter
Mar 30
New
Apr 7
First Quarter
Apr 15
Full

Hourly Weather History & Observations

Time (EDT) Temp. Windchill Dew Point Humidity Pressure Visibility Wind Dir Wind Speed Gust Speed Precip Events Conditions
12:53 AM 35.1 °F - 27.0 °F 72% 29.91 in 10.0 mi Calm Calm - N/A   Clear
1:53 AM 34.0 °F - 27.0 °F 75% 29.91 in 10.0 mi Calm Calm - N/A   Mostly Cloudy
2:53 AM 36.0 °F 33.3 °F 28.9 °F 76% 29.90 in 10.0 mi ENE 3.5 mph - N/A   Overcast
3:53 AM 37.0 °F - 28.9 °F 73% 29.91 in 10.0 mi Calm Calm - N/A   Overcast
4:53 AM 37.9 °F 35.5 °F 30.9 °F 76% 29.88 in 10.0 mi ESE 3.5 mph - N/A   Overcast
5:53 AM 39.0 °F - 32.0 °F 76% 29.88 in 10.0 mi Calm Calm - N/A   Overcast
6:53 AM 39.0 °F - 32.0 °F 76% 29.91 in 10.0 mi Calm Calm - N/A   Overcast
7:53 AM 39.9 °F 37.8 °F 32.0 °F 73% 29.92 in 10.0 mi ENE 3.5 mph - N/A   Overcast
8:53 AM 39.9 °F 37.8 °F 32.0 °F 73% 29.92 in 10.0 mi ENE 3.5 mph - N/A   Overcast
9:53 AM 41.0 °F 39.0 °F 32.0 °F 70% 29.94 in 10.0 mi Variable 3.5 mph - N/A   Overcast
10:53 AM 42.1 °F 37.1 °F 33.1 °F 70% 29.96 in 10.0 mi ESE 8.1 mph - N/A   Overcast
11:53 AM 44.1 °F 40.8 °F 35.1 °F 71% 29.98 in 10.0 mi SE 5.8 mph - N/A   Overcast
12:53 PM 45.0 °F 40.1 °F 36.0 °F 71% 29.99 in 10.0 mi South 9.2 mph - N/A   Overcast
1:53 PM 46.9 °F - 37.9 °F 71% 29.98 in 10.0 mi South 6.9 mph - N/A   Overcast
2:53 PM 48.9 °F - 39.0 °F 69% 29.96 in 10.0 mi SSE 6.9 mph - N/A   Overcast
3:53 PM 50.0 °F - 39.9 °F 68% 29.94 in 10.0 mi South 8.1 mph - N/A   Overcast
4:53 PM 51.1 °F - 39.9 °F 66% 29.91 in 10.0 mi SE 9.2 mph - N/A   Overcast
5:53 PM 52.0 °F - 41.0 °F 66% 29.89 in 10.0 mi SSE 6.9 mph - N/A   Overcast
6:53 PM 52.0 °F - 41.0 °F 66% 29.86 in 10.0 mi SE 9.2 mph - N/A   Overcast
7:04 PM 51.8 °F - 42.8 °F 71% 29.85 in 10.0 mi SE 8.1 mph - N/A   Overcast
7:53 PM 52.0 °F - 42.1 °F 69% 29.84 in 10.0 mi SE 6.9 mph - N/A   Overcast
8:53 PM 52.0 °F - 42.1 °F 69% 29.84 in 10.0 mi ESE 6.9 mph - N/A   Overcast
9:53 PM 50.0 °F - 42.1 °F 74% 29.83 in 10.0 mi ESE 5.8 mph - N/A   Partly Cloudy
10:53 PM 50.0 °F - 43.0 °F 77% 29.83 in 10.0 mi SE 5.8 mph - N/A   Clear
11:53 PM 48.9 °F - 43.0 °F 80% 29.84 in 10.0 mi SE 5.8 mph - N/A   Clear